Weather History for KVBT - February, 2015

Change the Weather History Date:

Thursday, February 5, 2015

  Actual Average Record
Temperature  
Mean Temperature 27 °F -  
Max Temperature 39 °F 45 °F 70 °F (1963)
Min Temperature 15 °F 25 °F 1 °F (1989)
Degree Days  
Heating Degree Days 38    
Moisture  
Dew Point 12 °F    
Average Humidity 56    
Maximum Humidity 80    
Minimum Humidity 31    
Precipitation  
Precipitation 0.00 in - - ()
Sea Level Pressure  
Sea Level Pressure 30.39 in    
Wind  
Wind Speed 8 mph (East)    
Max Wind Speed 15 mph    
Max Gust Speed 21 mph    
Visibility 10 miles    
Events      
Averages and records for this station are not official NWS values.
T = Trace of Precipitation, MM = Missing Value Source: NWS Daily Summary

Daily Weather History Graph

Daily Weather History Graph

Search for Another Location

Airport or City:

Trip Planner

Search our weather history database for the weather conditions in past years. The results will help you decide how hot, cold, wet, or windy it might be!

Date:

Astronomy

Feb. 05, 2015 Rise Set
Actual Time 7:14 AM CST 5:47 PM CST
Civil Twilight 6:48 AM CST 6:14 PM CST
Nautical Twilight 6:17 AM CST 6:44 PM CST
Astronomical Twilight 5:47 AM CST 7:14 PM CST
Moon 7:38 PM CST (2/5) 7:54 AM CST (2/5)
Length of Visible Light 11h 26m
Length of Day
10h 32m
Full, 97% of the Moon is Illuminated
Feb 5
Full
Feb 11
Last Quarter
Feb 18
New
Feb 25
First Quarter
Mar 5
Full

Hourly Weather History & Observations

Time (CST) Temp. Windchill Dew Point Humidity Pressure Visibility Wind Dir Wind Speed Gust Speed Precip Events Conditions
12:15 AM 24.8 °F 14.6 °F 17.6 °F 74% 30.39 in 10.0 mi NNE 10.4 mph - N/A   Overcast
12:35 AM 24.8 °F 12.4 °F 17.6 °F 74% 30.39 in 10.0 mi NE 15.0 mph 20.7 mph N/A   Overcast
12:55 AM 23.0 °F 10.6 °F 17.6 °F 80% 30.39 in 10.0 mi NNE 13.8 mph 19.6 mph N/A   Overcast
1:15 AM 23.0 °F 11.7 °F 15.8 °F 74% 30.39 in 10.0 mi NNE 11.5 mph - N/A   Overcast
1:35 AM 23.0 °F 10.1 °F 15.8 °F 74% 30.39 in 10.0 mi NE 15.0 mph 19.6 mph N/A   Overcast
1:55 AM 21.2 °F 8.3 °F 15.8 °F 80% 30.40 in 10.0 mi NE 13.8 mph 20.7 mph N/A   Overcast
2:15 AM 21.2 °F 9.5 °F 15.8 °F 80% 30.40 in 10.0 mi NE 11.5 mph - N/A   Mostly Cloudy
2:35 AM 21.2 °F 9.5 °F 15.8 °F 80% 30.40 in 10.0 mi NNE 11.5 mph - N/A   Overcast
2:55 AM 21.2 °F 7.8 °F 14.0 °F 74% 30.40 in 10.0 mi NNE 15.0 mph - N/A   Overcast
3:15 AM 19.4 °F 9.5 °F 12.2 °F 74% 30.40 in 10.0 mi NE 8.1 mph - N/A   Overcast
3:35 AM 19.4 °F 7.2 °F 12.2 °F 74% 30.40 in 10.0 mi NE 11.5 mph - N/A   Scattered Clouds
3:55 AM 19.4 °F 9.5 °F 12.2 °F 74% 30.41 in 10.0 mi NE 8.1 mph - N/A   Partly Cloudy
4:15 AM 19.4 °F 7.9 °F 12.2 °F 74% 30.41 in 10.0 mi NE 10.4 mph - N/A   Partly Cloudy
4:35 AM 19.4 °F 8.6 °F 12.2 °F 74% 30.41 in 10.0 mi NE 9.2 mph - N/A   Mostly Cloudy
4:55 AM 17.6 °F 4.3 °F 10.4 °F 73% 30.41 in 10.0 mi NE 12.7 mph 19.6 mph N/A   Partly Cloudy
5:15 AM 17.6 °F 5.7 °F 10.4 °F 73% 30.41 in 10.0 mi NE 10.4 mph - N/A   Clear
5:35 AM 17.6 °F 7.3 °F 10.4 °F 73% 30.41 in 10.0 mi NE 8.1 mph - N/A   Clear
5:55 AM 17.6 °F 7.3 °F 10.4 °F 73% 30.41 in 10.0 mi NE 8.1 mph - N/A   Clear
6:15 AM 17.6 °F 8.2 °F 10.4 °F 73% 30.41 in 10.0 mi NE 6.9 mph - N/A   Clear
6:35 AM 15.8 °F 5.1 °F 10.4 °F 79% 30.42 in 10.0 mi NE 8.1 mph - N/A   Clear
6:55 AM 15.8 °F 6.1 °F 10.4 °F 79% 30.42 in 10.0 mi NE 6.9 mph - N/A   Clear
7:15 AM 15.8 °F 6.1 °F 10.4 °F 79% 30.42 in 10.0 mi NE 6.9 mph - N/A   Clear
7:35 AM 15.8 °F 7.2 °F 10.4 °F 79% 30.43 in 10.0 mi NE 5.8 mph - N/A   Clear
7:55 AM 15.8 °F 6.1 °F 10.4 °F 79% 30.44 in 10.0 mi NE 6.9 mph - N/A   Clear
8:15 AM 17.6 °F 8.2 °F 12.2 °F 79% 30.45 in 10.0 mi NNE 6.9 mph - N/A   Clear
8:35 AM 17.6 °F 5.7 °F 12.2 °F 79% 30.46 in 10.0 mi NE 10.4 mph - N/A   Clear
8:55 AM 19.4 °F 8.6 °F 12.2 °F 74% 30.46 in 10.0 mi ENE 9.2 mph - N/A   Clear
9:15 AM 21.2 °F 11.7 °F 12.2 °F 68% 30.46 in 10.0 mi East 8.1 mph - N/A   Clear
9:35 AM 21.2 °F 11.7 °F 12.2 °F 68% 30.46 in 10.0 mi East 8.1 mph - N/A   Clear
9:55 AM 24.8 °F 15.3 °F 12.2 °F 59% 30.46 in 10.0 mi ESE 9.2 mph - N/A   Clear
10:15 AM 24.8 °F 16.1 °F 10.4 °F 54% 30.46 in 10.0 mi ENE 8.1 mph - N/A   Clear
10:35 AM 24.8 °F 19.1 °F 10.4 °F 54% 30.46 in 10.0 mi East 4.6 mph - N/A   Clear
10:55 AM 26.6 °F 19.1 °F 12.2 °F 55% 30.46 in 10.0 mi SE 6.9 mph - N/A   Clear
11:15 AM 26.6 °F 20.0 °F 10.4 °F 51% 30.46 in 10.0 mi ENE 5.8 mph - N/A   Clear
11:35 AM 28.4 °F 22.2 °F 10.4 °F 47% 30.46 in 10.0 mi ENE 5.8 mph - N/A   Clear
11:55 AM 28.4 °F - 12.2 °F 51% 30.45 in 10.0 mi Calm Calm - N/A   Clear
12:15 PM 28.4 °F 24.6 °F 10.4 °F 47% 30.45 in 10.0 mi SSE 3.5 mph - N/A   Clear
12:35 PM 30.2 °F 26.7 °F 10.4 °F 44% 30.43 in 10.0 mi SSW 3.5 mph - N/A   Clear
12:55 PM 32.0 °F 28.7 °F 10.4 °F 41% 30.42 in 10.0 mi ESE 3.5 mph - N/A   Clear
1:15 PM 33.8 °F - 12.2 °F 41% 30.41 in 10.0 mi Calm Calm - N/A   Clear
1:35 PM 33.8 °F - 10.4 °F 38% 30.40 in 10.0 mi Calm Calm - N/A   Clear
1:55 PM 35.6 °F 31.7 °F 10.4 °F 35% 30.38 in 10.0 mi SE 4.6 mph - N/A   Clear
2:15 PM 35.6 °F 32.8 °F 10.4 °F 35% 30.38 in 10.0 mi ESE 3.5 mph - N/A   Clear
2:35 PM 37.4 °F - 12.2 °F 36% 30.37 in 10.0 mi Calm Calm - N/A   Clear
2:55 PM 35.6 °F - 10.4 °F 35% 30.38 in 10.0 mi Calm Calm - N/A   Clear
3:15 PM 37.4 °F 33.8 °F 10.4 °F 33% 30.37 in 10.0 mi South 4.6 mph - N/A   Clear
3:55 PM 37.4 °F 33.8 °F 10.4 °F 33% 30.37 in 10.0 mi SSW 4.6 mph - N/A   Clear
4:15 PM 37.4 °F 32.1 °F 10.4 °F 33% 30.36 in 10.0 mi SW 6.9 mph - N/A   Clear
4:35 PM 37.4 °F 33.8 °F 10.4 °F 33% 30.35 in 10.0 mi SSW 4.6 mph - N/A   Clear
4:55 PM 39.2 °F 35.9 °F 10.4 °F 31% 30.35 in 10.0 mi SW 4.6 mph - N/A   Clear
5:15 PM 37.4 °F - 10.4 °F 33% 30.35 in 10.0 mi Calm Calm - N/A   Clear
5:35 PM 37.4 °F - 10.4 °F 33% 30.34 in 10.0 mi Calm Calm - N/A   Clear
5:55 PM 35.6 °F - 12.2 °F 38% 30.32 in 10.0 mi Calm Calm - N/A   Clear
6:15 PM 35.6 °F - 10.4 °F 35% 30.31 in 10.0 mi Calm Calm - N/A   Clear
6:35 PM 33.8 °F - 12.2 °F 41% 30.32 in 10.0 mi Calm Calm - N/A   Clear
6:55 PM 33.8 °F 30.8 °F 12.2 °F 41% 30.31 in 10.0 mi SSW 3.5 mph - N/A   Clear
7:15 PM 32.0 °F - 14.0 °F 48% 30.32 in 10.0 mi Calm Calm - N/A   Clear
7:35 PM 30.2 °F - 14.0 °F 51% 30.33 in 10.0 mi Calm Calm - N/A   Clear
7:55 PM 32.0 °F - 12.2 °F 44% 30.34 in 10.0 mi Calm Calm - N/A   Clear
8:15 PM 33.8 °F 28.6 °F 12.2 °F 41% 30.34 in 10.0 mi SSW 5.8 mph - N/A   Clear
8:35 PM 33.8 °F 27.7 °F 12.2 °F 41% 30.34 in 10.0 mi SSW 6.9 mph - N/A   Clear
8:55 PM 32.0 °F 25.6 °F 10.4 °F 41% 30.34 in 10.0 mi SSW 6.9 mph - N/A   Clear
9:15 PM 30.2 °F 25.4 °F 10.4 °F 44% 30.34 in 10.0 mi WSW 4.6 mph - N/A   Clear
9:35 PM 30.2 °F 26.7 °F 10.4 °F 44% 30.33 in 10.0 mi South 3.5 mph - N/A   Clear
9:55 PM 30.2 °F - 10.4 °F 44% 30.34 in 10.0 mi Calm Calm - N/A   Clear
10:15 PM 28.4 °F 24.6 °F 12.2 °F 51% 30.33 in 10.0 mi South 3.5 mph - N/A   Scattered Clouds
10:35 PM 28.4 °F 24.6 °F 12.2 °F 51% 30.33 in 10.0 mi SW 3.5 mph - N/A   Overcast
10:55 PM 30.2 °F 26.7 °F 12.2 °F 47% 30.33 in 10.0 mi SSW 3.5 mph - N/A   Overcast
11:15 PM 30.2 °F 25.4 °F 15.8 °F 55% 30.33 in 10.0 mi SSW 4.6 mph - N/A   Overcast
11:35 PM 32.0 °F 27.5 °F 12.2 °F 44% 30.34 in 10.0 mi SSW 4.6 mph - N/A   Overcast
11:55 PM 30.2 °F 24.3 °F 12.2 °F 47% 30.34 in 10.0 mi SSW 5.8 mph - N/A   Mostly Cloudy